Terug naar catalogus

ONEWEB-0651

ActiefCommunicatiePO
NORAD 56080·PAYLOAD·🇬🇧 United Kingdom

Gelanceerd Mar 26, 2023 vanaf Satish Dhawan Space Centre

Loading…

Volgende Passages (komende 24 uur)

TLE

VersSource: CelesTrak SupGP

Epoch: Sep 15, 2026, 00:38 UTC

1 56080C 23043AL  26258.02687917 -.00002109  00000+0 -56094-2 0  2581
2 56080  87.8982 241.3038 0002108  93.4022 298.6002 13.15553053    14

Volg ONEWEB-0651 in realtime met AllMySat

Download on the App Store